Regional Weather Roundup
Issued by NWS Sterling, VA

Home | Current Version | Previous Version | Text Only | Print | Product List | Glossary Off
Versions: 1 2 3 4 5 6 7 8 9 10 11 12 13 14 15 16 17 18 19 20 21 22 23 24 25 26 27 28 29 30 31 32 33 34 35 36 37 38 39 40 41 42 43 44 45 46 47 48 49 50

896
ASUS41 KLWX 262311
RWRLWX

REGIONAL WEATHER ROUNDUP
NATIONAL WEATHER SERVICE BALTIMORE MD/WASHINGTON DC
700 PM EDT FRI AUG 26 2016

Note: "FAIR" indicates few or no clouds below 12,000 feet
with no significant weather and/or obstructions to visibility.
 TC=TEMPERATURE CELSIUS

 * =Non NWS site. Station does not report precipitation (e.g. rain,
    snow, etc.), thunder, or fog.

DCZ001-MDZ009-015-VAZ040>042-051-053>054-270000-
WASHINGTON METRO

CITY           SKY/WX    TMP DP  RH WIND       PRES   REMARKS
WASHINGTON NAT PTCLDY    92  69  47 NW10      30.02F HX  97
DULLES         PTCLDY    91  67  44 N6        30.04S HX  94
ANDREWS AFB    CLEAR     89  69  52 N8        30.02F HX  93
FT BELVOIR     CLEAR     91  71  51 W2        30.02S HX  97
QUANTICO       CLEAR     90  77  65 CALM      30.03S HX 103
COLLEGE PARK*  CLEAR     88  72  58 CALM      30.02F HX  94
LEESBURG*      CLEAR     91  72  52 N3        30.05S HX  98
MANASSAS*      CLEAR     90  75  62 SE5       30.03S HX 100
GAITHERSBURG*  CLEAR     86  72  62 CALM      30.08F HX  92

$$

MDZ006>007-011-014-270000-
BALTIMORE METRO

CITY           SKY/WX    TMP DP  RH WIND       PRES   REMARKS
BWI AIRPORT    PTCLDY    90  69  50 NW3       30.02S HX  94
MARTIN STATE   PTCLDY    90  73  58 N3        30.03S HX  98
ANNAPOLIS      CLEAR     89  73  59 NE6       30.02S HX  97
FORT MEADE*    CLEAR    N/A N/A N/A CALM      30.05S

$$

MDZ012-015-019>023-270000-
MARYLAND EASTERN SHORE

CITY           SKY/WX    TMP DP  RH WIND       PRES   REMARKS
OCEAN CITY     CLEAR     85  73  67 CALM      30.02S HX  91
SALISBURY      CLEAR     89  72  56 N6        30.02R HX  96
BAY BRIDGE AP* CLEAR     88  72  58 N3        30.02S HX  94
CAMBRIDGE*     CLEAR     88  72  58 CALM      30.02S HX  94
EASTON*        CLEAR     90  77  66 N3        30.06S HX 102

$$

MDZ017>025-270000-
SOUTHERN MARYLAND

CITY           SKY/WX    TMP DP  RH WIND       PRES   REMARKS
PATUXENT RIVER PTCLDY    87  73  62 E3        30.02S HX  94
ST INIGOES     CLEAR     89  75  63 CALM      30.01F HX  99
LEONARDTOWN*   CLEAR     88  72  58 CALM      30.04S HX  94

$$

MDZ003>005-270000-
NORTH CENTRAL MARYLAND

CITY           SKY/WX    TMP DP  RH WIND       PRES   REMARKS
FREDERICK*     PTCLDY    88  79  74 CALM      30.06F HX 102
HAGERSTOWN APT CLEAR     90  61  37 N9        30.06S HX  90

$$

MDZ501>502-270000-
WESTERN MARYLAND

CITY           SKY/WX    TMP DP  RH WIND       PRES   REMARKS
OAKLAND*       CLEAR     75  66  73 N3        30.22F
CUMBERLAND*    CLEAR     90  64  43 NW6       30.11F HX  91

$$

VAZ025>031-270000-
SHENANDOAH VALLEY

CITY           SKY/WX    TMP DP  RH WIND       PRES   REMARKS
WINCHESTER*    CLEAR     90  66  45 CALM      30.06S HX  92
FRONT ROYAL*   MOCLDY    86  75  70 CALM      30.05S HX  95
LURAY*         FAIR      90  72  55 NE3       30.06S HX  96
NEW MARKET*    FAIR     N/A N/A N/A CALM      30.05S
STAUNTON*      CLOUDY    87  73  61 SE6       30.11R HX  94
WAYNESBORO*    FAIR      82  70  65 S7        30.11S

$$

WVZ021-048>050-054>055-270000-
EASTERN WEST VIRGINIA PANHANDLE

CITY           SKY/WX    TMP DP  RH WIND       PRES   REMARKS
MARTINSBURG    MOCLDY    90  66  45 N6        30.05S HX  92
PETERSBURG*    CLEAR     90  69  50 W7        30.09R HX  94

$$

VAZ036>039-050-270000-
CENTRAL FOOTHILLS

CITY           SKY/WX    TMP DP  RH WIND       PRES   REMARKS
CHARLOTTESVILL CLOUDY    86  73  65 VRB6      30.05S HX  93
CULPEPER*      MOCLDY    90  78  68 CALM      30.04S HX 104
ORANGE*          N/A     86  75  70 CALM      30.06S HX  95
GORDONSVILLE*  NOT AVBL
WARRENTON*     FAIR      91  69  48 CALM      30.04S HX  95

$$

VAZ055>057-270000-
NORTH AND CENTRAL PIEDMONT

CITY           SKY/WX    TMP DP  RH WIND       PRES   REMARKS
FREDERICKSBRG*   N/A     91  75  60 NE5       30.02R HX 101
STAFFORD*      MOCLDY    90  72  54 E3        30.07S HX  96

$$

NCZ024-NYZ072-PAZ021-071-VAZ022-071-270000-
OTHER REGIONAL OBSERVATIONS

CITY           SKY/WX    TMP DP  RH WIND       PRES   REMARKS
NEW YORK CITY    N/A     86  61  42 MISG        N/A
PHILADELPHIA   PTCLDY    91  63  39 NW14      30.01S HX  92
PITTSBURGH     MOSUNNY   85  54  34 N10       30.12S
ROANOKE        MOSUNNY   89  70  53 S7        30.11R HX  94
RICHMOND       PTCLDY    92  69  47 NE7       30.02F HX  97
RALEIGH        PTCLDY    93  73  52 S6        30.03S HX 102

$$

ANZ530>537-270000-
MARINE OBSERVATIONS

STATION/POSITION TIME  TEMP    WIND        PRES
                       AIR SEA DIR/SP/G
                 (UTC) (F)     (DEG/KT/KT) (MB)
THOMAS PT LIGHT  2300   87 84   40/  4/  5 1018.0S
BALT KEY BRIDGE  2224   86     150/  6/  6   N/A
COVE POINT       2224   87      50/  5/  5   N/A
LEWISETTA        2224   90 84   10/  3/  5   N/A
SOLOMONS ISLAND  2224   89 84   50/  6/  7   N/A
PINEY POINT      2218          320/  5/  6   N/A

$$





USA.gov is the U.S. government's official web portal to all federal, state and local government web resources and services.